{"data":{"norad_id":62599,"intl_designator":"2025-008N","name":"STARLINK-11529 [DTC]","alt_names":[],"object_type":"PAYLOAD","status":"ACTIVE","operator":null,"country":"US","launch_date":"2025-01-13","launch_site_code":"AFETR","launch_vehicle":null,"mission":null,"orbit_class":"UNKNOWN","rcs_meters":null,"size_class":null,"mass_kg":null,"dimensions":null,"purposes":["comms"],"wikipedia_slug":null,"has_3d_model":false,"image_url":null,"decayed_at":null,"tle_current":{"epoch":"2026-09-21T06:23:59.618400Z","epoch_age_seconds":105104,"freshness":"FRESH","line1":"1 62599U 25008N   26264.26666225  .00217137  00000+0  16428-2 0  9994","line2":"2 62599  43.0002  27.2684 0002624 290.2403  69.8182 15.70969625 98051","mean_motion":15.70969625,"eccentricity":0.0002624,"inclination_deg":43.0002,"raan_deg":27.2684,"arg_perigee_deg":290.2403,"mean_anomaly_deg":69.8182,"bstar":0.0016428,"rev_number":9805,"period_min":91.663134479764,"perigee_km":354.35752429195,"apogee_km":357.89166477676,"semimajor_km":6734.2615945344,"source":"CELESTRAK","updated_at":"2026-09-22T09:00:49.632536Z"}}}